Tracking 32418 objects as of 9-Dec-2025
HD Live streaming from Space Station
objects crossing your sky now

STARLINK-33672

Track STARLINK-33672 now!
10-day predictions
STARLINK-33672 is classified as:


NORAD ID: 63326
Int'l Code: 2025-057V
Perigee: 489.4 km
Apogee: 490.9 km
Inclination: 43.0 °
Period: 94.3 minutes
Semi major axis: 6861 km
RCS: Unknown
Launch date: March 18, 2025
Source: United States (US)
Launch site: AIR FORCE EASTERN TEST RANGE (AFETR)
Your satellite tracking list
Your tracking list is empty




NASA's NSSDC Master Catalog

Two Line Element Set (TLE):
1 63326U 25057V   25343.60964192  .00026458  00000-0  96713-3 0  9997
2 63326  43.0015 179.3218 0001149 249.9164 110.1564 15.27594320 42008
Source of the keplerian elements: AFSPC